Time,TemperatureF,DewpointF,PressureIn,WindDirection,WindDirectionDegrees,WindSpeedMPH,WindSpeedGustMPH,Humidity,HourlyPrecipIn,Conditions,Clouds,dailyrainin,SoftwareType,DateUTC
2013-10-23 00:00:00,83.6,77.5,29.81,ENE,76,2.0,9.0,82,0.00,,,0.00,VWS V15.00,2013-10-23 06:00:00,
2013-10-23 00:02:00,83.5,77.4,29.80,NE,49,5.0,6.0,82,0.00,,,0.00,VWS V14.01,2013-10-23 06:02:00,
2013-10-23 00:07:00,83.4,77.3,29.80,ENE,69,0.0,6.0,82,0.00,,,0.00,VWS V14.01,2013-10-23 06:07:00,
2013-10-23 00:12:00,83.2,77.1,29.80,East,92,3.0,6.0,82,0.00,,,0.00,VWS V14.01,2013-10-23 06:12:00,
2013-10-23 00:17:00,83.1,77.0,29.79,NE,42,0.0,6.0,82,0.00,,,0.00,VWS V14.01,2013-10-23 06:17:00,
2013-10-23 00:22:00,83.0,76.9,29.79,NE,38,1.0,6.0,82,0.00,,,0.00,VWS V14.01,2013-10-23 06:22:00,
2013-10-23 00:27:00,82.9,77.2,29.78,NE,44,0.0,6.0,83,0.00,,,0.00,VWS V14.01,2013-10-23 06:27:00,
2013-10-23 00:30:00,82.8,77.1,29.78,NE,46,2.0,6.0,83,0.00,,,0.00,VWS V15.00,2013-10-23 06:30:00,
2013-10-23 00:32:00,82.8,77.1,29.78,NNE,21,1.0,3.0,83,0.00,,,0.00,VWS V14.01,2013-10-23 06:32:00,
2013-10-23 00:37:00,82.8,77.1,29.78,NE,54,2.0,4.0,83,0.00,,,0.00,VWS V14.01,2013-10-23 06:37:00,
2013-10-23 00:42:00,82.8,77.1,29.77,NE,44,3.0,5.0,83,0.00,,,0.00,VWS V14.01,2013-10-23 06:42:00,
2013-10-23 00:47:00,82.9,77.2,29.77,NNE,19,0.0,5.0,83,0.00,,,0.00,VWS V14.01,2013-10-23 06:47:00,
2013-10-23 00:52:00,83.0,76.9,29.77,NNE,15,1.0,5.0,82,0.00,,,0.00,VWS V14.01,2013-10-23 06:52:00,
2013-10-23 00:57:00,83.1,77.0,29.77,East,98,2.0,5.0,82,0.00,,,0.00,VWS V14.01,2013-10-23 06:57:00,
2013-10-23 01:00:00,83.4,77.0,29.77,East,81,1.0,5.0,81,0.00,,,0.00,VWS V15.00,2013-10-23 07:00:00,
2013-10-23 01:02:00,83.5,77.1,29.77,East,82,4.0,4.0,81,0.00,,,0.00,VWS V14.01,2013-10-23 07:02:00,
2013-10-23 01:07:00,83.7,76.9,29.77,East,79,4.0,5.0,80,0.00,,,0.00,VWS V14.01,2013-10-23 07:07:00,
2013-10-23 01:12:00,83.7,77.2,29.77,East,79,4.0,5.0,81,0.00,,,0.00,VWS V14.01,2013-10-23 07:12:00,
2013-10-23 01:17:00,83.7,77.2,29.77,ENE,77,1.0,6.0,81,0.00,,,0.00,VWS V14.01,2013-10-23 07:17:00,
2013-10-23 01:22:00,83.7,77.2,29.77,East,86,0.0,6.0,81,0.00,,,0.00,VWS V14.01,2013-10-23 07:22:00,
2013-10-23 01:27:00,83.6,77.2,29.77,ENE,69,1.0,6.0,81,0.00,,,0.00,VWS V14.01,2013-10-23 07:27:00,
2013-10-23 01:30:00,83.5,77.1,29.77,East,81,0.0,6.0,81,0.00,,,0.00,VWS V15.00,2013-10-23 07:30:00,
2013-10-23 01:32:00,83.5,77.1,29.77,East,83,0.0,0.0,81,0.00,,,0.00,VWS V14.01,2013-10-23 07:32:00,
2013-10-23 01:37:00,83.4,77.0,29.77,East,90,0.0,1.0,81,0.00,,,0.00,VWS V14.01,2013-10-23 07:37:00,
2013-10-23 01:42:00,83.2,76.8,29.77,East,89,0.0,1.0,81,0.00,,,0.00,VWS V14.01,2013-10-23 07:42:00,
2013-10-23 01:47:00,83.0,76.9,29.77,ENE,73,0.0,1.0,82,0.00,,,0.00,VWS V14.01,2013-10-23 07:47:00,
2013-10-23 01:52:00,82.8,76.8,29.76,NE,49,0.0,2.0,82,0.00,,,0.00,VWS V14.01,2013-10-23 07:52:00,
2013-10-23 01:57:00,82.6,76.6,29.76,NE,56,1.0,2.0,82,0.00,,,0.00,VWS V14.01,2013-10-23 07:57:00,
2013-10-23 02:00:00,82.5,76.4,29.76,NE,56,0.0,2.0,82,0.00,,,0.00,VWS V15.00,2013-10-23 08:00:00,
2013-10-23 02:02:00,82.4,76.4,29.76,ENE,62,0.0,1.0,82,0.00,,,0.00,VWS V14.01,2013-10-23 08:02:00,
2013-10-23 02:07:00,82.4,76.4,29.76,NE,54,0.0,1.0,82,0.00,,,0.00,VWS V14.01,2013-10-23 08:07:00,
2013-10-23 02:12:00,82.3,76.3,29.76,NE,41,0.0,1.0,82,0.00,,,0.00,VWS V14.01,2013-10-23 08:12:00,
2013-10-23 02:17:00,82.1,76.1,29.75,NE,56,0.0,1.0,82,0.00,,,0.00,VWS V14.01,2013-10-23 08:17:00,
2013-10-23 02:22:00,82.1,76.1,29.75,NE,54,0.0,1.0,82,0.00,,,0.00,VWS V14.01,2013-10-23 08:22:00,
2013-10-23 02:27:00,81.9,75.9,29.75,NE,56,0.0,1.0,82,0.00,,,0.00,VWS V14.01,2013-10-23 08:27:00,
2013-10-23 02:30:00,81.9,75.9,29.75,NE,56,0.0,1.0,82,0.00,,,0.00,VWS V15.00,2013-10-23 08:30:00,
2013-10-23 02:32:00,81.8,75.8,29.75,NE,53,0.0,1.0,82,0.00,,,0.00,VWS V14.01,2013-10-23 08:32:00,
2013-10-23 02:37:00,81.7,75.7,29.75,ENE,57,0.0,2.0,82,0.00,,,0.00,VWS V14.01,2013-10-23 08:37:00,
2013-10-23 02:42:00,81.9,75.9,29.76,NE,47,1.0,2.0,82,0.00,,,0.00,VWS V14.01,2013-10-23 08:42:00,
2013-10-23 02:47:00,82.2,76.2,29.76,ENE,64,0.0,4.0,82,0.00,,,0.00,VWS V14.01,2013-10-23 08:47:00,
2013-10-23 02:52:00,82.5,76.1,29.76,ENE,70,0.0,4.0,81,0.00,,,0.00,VWS V14.01,2013-10-23 08:52:00,
2013-10-23 02:57:00,82.5,76.1,29.76,NE,46,0.0,4.0,81,0.00,,,0.00,VWS V14.01,2013-10-23 08:57:00,
2013-10-23 03:00:00,82.5,76.1,29.76,NE,49,0.0,4.0,81,0.00,,,0.00,VWS V15.00,2013-10-23 09:00:00,
2013-10-23 03:02:00,82.5,76.1,29.76,NE,49,0.0,0.0,81,0.00,,,0.00,VWS V14.01,2013-10-23 09:02:00,
2013-10-23 03:07:00,82.4,76.0,29.76,ENE,69,0.0,1.0,81,0.00,,,0.00,VWS V14.01,2013-10-23 09:07:00,
2013-10-23 03:12:00,82.3,75.9,29.76,ENE,65,0.0,2.0,81,0.00,,,0.00,VWS V14.01,2013-10-23 09:12:00,
2013-10-23 03:17:00,82.4,76.0,29.76,ENE,69,1.0,2.0,81,0.00,,,0.00,VWS V14.01,2013-10-23 09:17:00,
2013-10-23 03:22:00,82.5,76.4,29.76,ENE,64,1.0,2.0,82,0.00,,,0.00,VWS V14.01,2013-10-23 09:22:00,
2013-10-23 03:27:00,82.5,76.1,29.76,NE,56,0.0,3.0,81,0.00,,,0.00,VWS V14.01,2013-10-23 09:27:00,
2013-10-23 03:30:00,82.6,76.2,29.76,NE,52,1.0,3.0,81,0.00,,,0.00,VWS V15.00,2013-10-23 09:30:00,
2013-10-23 03:32:00,82.6,76.2,29.76,ENE,62,2.0,2.0,81,0.00,,,0.00,VWS V14.01,2013-10-23 09:32:00,
2013-10-23 03:37:00,82.6,76.6,29.76,NE,56,1.0,3.0,82,0.00,,,0.00,VWS V14.01,2013-10-23 09:37:00,
2013-10-23 03:42:00,82.6,76.6,29.76,ENE,72,1.0,3.0,82,0.00,,,0.00,VWS V14.01,2013-10-23 09:42:00,
2013-10-23 03:47:00,82.8,76.8,29.77,East,84,2.0,4.0,82,0.00,,,0.00,VWS V14.01,2013-10-23 09:47:00,
2013-10-23 03:52:00,83.0,77.3,29.77,East,89,5.0,5.0,83,0.00,,,0.00,VWS V14.01,2013-10-23 09:52:00,
2013-10-23 03:57:00,83.4,77.0,29.77,ESE,105,4.0,7.0,81,0.00,,,0.00,VWS V14.01,2013-10-23 09:57:00,
2013-10-23 04:00:00,83.7,77.6,29.77,ESE,105,3.0,7.0,82,0.00,,,0.00,VWS V15.00,2013-10-23 10:00:00,
2013-10-23 04:02:00,83.7,77.6,29.77,East,101,4.0,5.0,82,0.00,,,0.00,VWS V14.01,2013-10-23 10:02:00,
2013-10-23 04:07:00,83.8,77.3,29.78,SE,130,2.0,6.0,81,0.00,,,0.00,VWS V14.01,2013-10-23 10:07:00,
2013-10-23 04:12:00,83.8,77.7,29.78,East,98,3.0,6.0,82,0.00,,,0.00,VWS V14.01,2013-10-23 10:12:00,
2013-10-23 04:17:00,83.8,78.1,29.78,East,91,4.0,6.0,83,0.00,,,0.00,VWS V14.01,2013-10-23 10:17:00,
2013-10-23 04:22:00,83.7,77.2,29.78,East,89,5.0,6.0,81,0.00,,,0.00,VWS V14.01,2013-10-23 10:22:00,
2013-10-23 04:27:00,83.7,77.2,29.78,SE,129,1.0,6.0,81,0.00,,,0.00,VWS V14.01,2013-10-23 10:27:00,
2013-10-23 04:30:00,83.7,76.9,29.78,SSE,162,2.0,6.0,80,0.00,,,0.00,VWS V15.00,2013-10-23 10:30:00,
2013-10-23 04:32:00,83.7,76.9,29.78,ENE,70,3.0,5.0,80,0.00,,,0.00,VWS V14.01,2013-10-23 10:32:00,
2013-10-23 04:37:00,83.7,76.9,29.78,SSE,161,2.0,5.0,80,0.00,,,0.00,VWS V14.01,2013-10-23 10:37:00,
2013-10-23 04:42:00,83.7,76.5,29.79,SE,137,4.0,5.0,79,0.00,,,0.00,VWS V14.01,2013-10-23 10:42:00,
2013-10-23 04:47:00,83.7,76.5,29.79,East,101,3.0,5.0,79,0.00,,,0.00,VWS V14.01,2013-10-23 10:47:00,
2013-10-23 04:52:00,83.8,77.0,29.79,SE,124,3.0,5.0,80,0.00,,,0.00,VWS V14.01,2013-10-23 10:52:00,
2013-10-23 04:57:00,83.8,76.2,29.80,ESE,115,5.0,6.0,78,0.00,,,0.00,VWS V14.01,2013-10-23 10:57:00,
2013-10-23 05:00:00,83.9,76.7,29.80,SSE,155,2.0,6.0,79,0.00,,,0.00,VWS V15.00,2013-10-23 11:00:00,
2013-10-23 05:02:00,83.9,76.7,29.80,SE,124,5.0,5.0,79,0.00,,,0.00,VWS V14.01,2013-10-23 11:02:00,
2013-10-23 05:07:00,83.9,76.7,29.80,ESE,122,3.0,5.0,79,0.00,,,0.00,VWS V14.01,2013-10-23 11:07:00,
2013-10-23 05:12:00,83.9,76.3,29.80,ESE,111,4.0,6.0,78,0.00,,,0.00,VWS V14.01,2013-10-23 11:12:00,
2013-10-23 05:17:00,84.0,77.2,29.81,ESE,105,2.0,6.0,80,0.00,,,0.00,VWS V14.01,2013-10-23 11:17:00,
2013-10-23 05:22:00,83.9,76.7,29.81,East,86,3.0,6.0,79,0.00,,,0.00,VWS V14.01,2013-10-23 11:22:00,
2013-10-23 05:27:00,83.9,77.1,29.81,ESE,102,4.0,6.0,80,0.00,,,0.00,VWS V14.01,2013-10-23 11:27:00,
2013-10-23 05:30:00,83.9,77.1,29.81,NE,43,2.0,6.0,80,0.00,,,0.00,VWS V15.00,2013-10-23 11:30:00,
2013-10-23 05:32:00,83.8,77.0,29.81,ESE,113,3.0,4.0,80,0.00,,,0.00,VWS V14.01,2013-10-23 11:32:00,
2013-10-23 05:37:00,83.8,77.3,29.81,ESE,115,1.0,4.0,81,0.00,,,0.00,VWS V14.01,2013-10-23 11:37:00,
2013-10-23 05:42:00,83.7,76.5,29.81,ESE,117,3.0,5.0,79,0.00,,,0.00,VWS V14.01,2013-10-23 11:42:00,
2013-10-23 05:47:00,83.9,77.1,29.81,ESE,121,2.0,5.0,80,0.00,,,0.00,VWS V14.01,2013-10-23 11:47:00,
2013-10-23 05:52:00,83.9,76.7,29.82,ESE,111,4.0,5.0,79,0.00,,,0.00,VWS V14.01,2013-10-23 11:52:00,
2013-10-23 05:57:00,84.1,76.9,29.81,ESE,106,4.0,6.0,79,0.00,,,0.00,VWS V14.01,2013-10-23 11:57:00,
2013-10-23 06:00:00,84.3,77.1,29.82,SSE,155,3.0,6.0,79,0.00,,,0.00,VWS V15.00,2013-10-23 12:00:00,
2013-10-23 06:02:00,84.4,77.2,29.82,ESE,117,6.0,6.0,79,0.00,,,0.00,VWS V14.01,2013-10-23 12:02:00,
2013-10-23 06:07:00,84.7,77.1,29.82,ESE,108,5.0,6.0,78,0.00,,,0.00,VWS V14.01,2013-10-23 12:07:00,
2013-10-23 06:12:00,84.8,77.6,29.82,SE,141,5.0,7.0,79,0.00,,,0.00,VWS V14.01,2013-10-23 12:12:00,
2013-10-23 06:17:00,84.9,77.7,29.83,ESE,105,3.0,7.0,79,0.00,,,0.00,VWS V14.01,2013-10-23 12:17:00,
2013-10-23 06:22:00,85.1,78.2,29.83,ESE,105,5.0,7.0,80,0.00,,,0.00,VWS V14.01,2013-10-23 12:22:00,
2013-10-23 06:27:00,85.2,77.9,29.83,ESE,107,4.0,7.0,79,0.00,,,0.00,VWS V14.01,2013-10-23 12:27:00,
2013-10-23 06:30:00,85.2,77.6,29.83,ESE,115,5.0,7.0,78,0.00,,,0.00,VWS V15.00,2013-10-23 12:30:00,
2013-10-23 06:32:00,85.2,77.9,29.83,East,95,4.0,5.0,79,0.00,,,0.00,VWS V14.01,2013-10-23 12:32:00,
2013-10-23 06:37:00,85.2,78.3,29.83,SE,139,5.0,7.0,80,0.00,,,0.00,VWS V14.01,2013-10-23 12:37:00,
2013-10-23 06:42:00,85.3,78.8,29.83,SE,127,3.0,7.0,81,0.00,,,0.00,VWS V14.01,2013-10-23 12:42:00,
2013-10-23 06:47:00,85.4,78.5,29.84,SE,139,6.0,8.0,80,0.00,,,0.00,VWS V14.01,2013-10-23 12:47:00,
2013-10-23 06:52:00,85.4,78.5,29.84,SSW,194,4.0,8.0,80,0.00,,,0.00,VWS V14.01,2013-10-23 12:52:00,
2013-10-23 06:57:00,85.9,79.0,29.84,SSE,165,3.0,8.0,80,0.00,,,0.00,VWS V14.01,2013-10-23 12:57:00,
2013-10-23 07:00:00,86.1,78.8,29.84,ESE,116,4.0,8.0,79,0.00,,,0.00,VWS V15.00,2013-10-23 13:00:00,
2013-10-23 07:02:00,86.0,78.3,29.84,ENE,76,4.0,7.0,78,0.00,,,0.00,VWS V14.01,2013-10-23 13:02:00,
2013-10-23 07:07:00,86.0,79.1,29.84,SE,131,6.0,7.0,80,0.00,,,0.00,VWS V14.01,2013-10-23 13:07:00,
2013-10-23 07:12:00,86.1,78.8,29.84,ESE,109,5.0,7.0,79,0.00,,,0.00,VWS V14.01,2013-10-23 13:12:00,
2013-10-23 07:17:00,86.4,78.7,29.84,SE,126,5.0,7.0,78,0.00,,,0.00,VWS V14.01,2013-10-23 13:17:00,
2013-10-23 07:22:00,86.5,78.8,29.85,ESE,116,3.0,7.0,78,0.00,,,0.00,VWS V14.01,2013-10-23 13:22:00,
2013-10-23 07:27:00,86.5,78.4,29.85,ESE,110,2.0,7.0,77,0.00,,,0.00,VWS V14.01,2013-10-23 13:27:00,
2013-10-23 07:30:00,86.6,78.5,29.85,SE,138,4.0,7.0,77,0.00,,,0.00,VWS V15.00,2013-10-23 13:30:00,
2013-10-23 07:32:00,86.8,78.7,29.85,ESE,117,3.0,5.0,77,0.00,,,0.00,VWS V14.01,2013-10-23 13:32:00,
2013-10-23 07:37:00,87.0,78.5,29.85,ESE,103,2.0,5.0,76,0.00,,,0.00,VWS V14.01,2013-10-23 13:37:00,
2013-10-23 07:42:00,87.8,78.9,29.84,SE,127,3.0,5.0,75,0.00,,,0.00,VWS V14.01,2013-10-23 13:42:00,
2013-10-23 07:47:00,88.2,78.9,29.84,SE,129,0.0,5.0,74,0.00,,,0.00,VWS V14.01,2013-10-23 13:47:00,
2013-10-23 07:52:00,89.0,79.2,29.85,SE,146,2.0,5.0,73,0.00,,,0.00,VWS V14.01,2013-10-23 13:52:00,
2013-10-23 07:57:00,89.2,79.4,29.85,ESE,117,4.0,5.0,73,0.00,,,0.00,VWS V14.01,2013-10-23 13:57:00,
2013-10-23 08:00:00,89.3,78.7,29.85,ESE,115,2.0,5.0,71,0.00,,,0.00,VWS V15.00,2013-10-23 14:00:00,
2013-10-23 08:02:00,89.2,79.0,29.85,SE,136,1.0,4.0,72,0.00,,,0.00,VWS V14.01,2013-10-23 14:02:00,
2013-10-23 08:07:00,88.8,78.6,29.86,SE,128,3.0,4.0,72,0.00,,,0.00,VWS V14.01,2013-10-23 14:07:00,
2013-10-23 08:12:00,88.8,79.0,29.86,SE,139,2.0,4.0,73,0.00,,,0.00,VWS V14.01,2013-10-23 14:12:00,
2013-10-23 08:17:00,89.6,78.9,29.86,SE,126,2.0,4.0,71,0.00,,,0.00,VWS V14.01,2013-10-23 14:17:00,
2013-10-23 08:22:00,89.7,78.6,29.86,SE,132,1.0,4.0,70,0.00,,,0.00,VWS V14.01,2013-10-23 14:22:00,
2013-10-23 08:27:00,90.0,78.9,29.86,SE,135,3.0,4.0,70,0.00,,,0.00,VWS V14.01,2013-10-23 14:27:00,
2013-10-23 08:30:00,88.9,78.3,29.86,East,100,4.0,6.0,71,0.00,,,0.00,VWS V15.00,2013-10-23 14:30:00,
2013-10-23 08:32:00,88.9,78.7,29.86,ESE,112,4.0,5.0,72,0.00,,,0.00,VWS V14.01,2013-10-23 14:32:00,
2013-10-23 08:37:00,88.5,78.7,29.87,SE,131,3.0,5.0,73,0.00,,,0.00,VWS V14.01,2013-10-23 14:37:00,
2013-10-23 08:42:00,88.8,78.2,29.87,East,85,2.0,6.0,71,0.00,,,0.00,VWS V14.01,2013-10-23 14:42:00,
2013-10-23 08:47:00,89.4,78.8,29.87,SSE,148,2.0,6.0,71,0.00,,,0.00,VWS V14.01,2013-10-23 14:47:00,
2013-10-23 08:52:00,89.8,79.1,29.87,SE,128,2.0,6.0,71,0.00,,,0.00,VWS V14.01,2013-10-23 14:52:00,
2013-10-23 08:57:00,90.3,79.2,29.87,SE,139,2.0,6.0,70,0.00,,,0.00,VWS V14.01,2013-10-23 14:57:00,
2013-10-23 09:00:00,90.2,78.2,29.87,SSW,204,4.0,6.0,68,0.00,,,0.00,VWS V15.00,2013-10-23 15:00:00,
2013-10-23 09:02:00,90.1,77.7,29.87,SSW,195,2.0,4.0,67,0.00,,,0.00,VWS V14.01,2013-10-23 15:02:00,
2013-10-23 09:07:00,90.0,78.0,29.87,South,172,1.0,4.0,68,0.00,,,0.00,VWS V14.01,2013-10-23 15:07:00,
2013-10-23 09:12:00,90.1,77.7,29.87,SSW,198,2.0,4.0,67,0.00,,,0.00,VWS V14.01,2013-10-23 15:12:00,
2013-10-23 09:17:00,89.4,78.3,29.87,ESE,113,1.0,4.0,70,0.00,,,0.00,VWS V14.01,2013-10-23 15:17:00,
2013-10-23 09:22:00,89.2,78.1,29.87,SSW,200,2.0,4.0,70,0.00,,,0.00,VWS V14.01,2013-10-23 15:22:00,
2013-10-23 09:27:00,88.6,78.0,29.87,SSW,195,3.0,4.0,71,0.00,,,0.00,VWS V14.01,2013-10-23 15:27:00,
2013-10-23 09:30:00,88.1,77.5,29.86,SSW,200,2.0,4.0,71,0.00,,,0.00,VWS V15.00,2013-10-23 15:30:00,
2013-10-23 09:32:00,87.9,77.8,29.86,SSW,194,2.0,3.0,72,0.00,,,0.00,VWS V14.01,2013-10-23 15:32:00,
2013-10-23 09:37:00,87.5,77.8,29.86,SSW,198,1.0,3.0,73,0.00,,,0.00,VWS V14.01,2013-10-23 15:37:00,
2013-10-23 09:42:00,87.9,77.8,29.86,SW,214,3.0,3.0,72,0.00,,,0.00,VWS V14.01,2013-10-23 15:42:00,
2013-10-23 09:47:00,88.1,78.4,29.86,SE,131,0.0,3.0,73,0.00,,,0.00,VWS V14.01,2013-10-23 15:47:00,
2013-10-23 09:52:00,89.6,78.9,29.86,SSE,150,0.0,3.0,71,0.00,,,0.00,VWS V14.01,2013-10-23 15:52:00,
2013-10-23 09:57:00,90.2,78.7,29.86,ESE,113,2.0,4.0,69,0.00,,,0.00,VWS V14.01,2013-10-23 15:57:00,
2013-10-23 10:00:00,90.7,79.1,29.86,South,174,2.0,4.0,69,0.00,,,0.00,VWS V15.00,2013-10-23 16:00:00,
2013-10-23 10:02:00,90.8,78.8,29.86,SE,131,3.0,3.0,68,0.00,,,0.00,VWS V14.01,2013-10-23 16:02:00,
2013-10-23 10:07:00,91.1,79.1,29.86,South,180,3.0,4.0,68,0.00,,,0.00,VWS V14.01,2013-10-23 16:07:00,
2013-10-23 10:12:00,90.9,78.9,29.86,SSW,194,2.0,4.0,68,0.00,,,0.00,VWS V14.01,2013-10-23 16:12:00,
2013-10-23 10:17:00,90.0,78.9,29.86,ESE,113,2.0,4.0,70,0.00,,,0.00,VWS V14.01,2013-10-23 16:17:00,
2013-10-23 10:22:00,90.9,78.4,29.86,SSE,155,2.0,4.0,67,0.00,,,0.00,VWS V14.01,2013-10-23 16:22:00,
2013-10-23 10:27:00,91.6,79.1,29.85,SSW,198,3.0,4.0,67,0.00,,,0.00,VWS V14.01,2013-10-23 16:27:00,
2013-10-23 10:30:00,91.8,78.8,29.85,South,169,2.0,4.0,66,0.00,,,0.00,VWS V15.00,2013-10-23 16:30:00,
2013-10-23 10:32:00,91.7,78.7,29.85,SSW,212,0.0,4.0,66,0.00,,,0.00,VWS V14.01,2013-10-23 16:32:00,
2013-10-23 10:37:00,92.0,78.6,29.85,South,185,3.0,4.0,65,0.00,,,0.00,VWS V14.01,2013-10-23 16:37:00,
2013-10-23 10:42:00,92.1,79.1,29.85,SE,129,2.0,4.0,66,0.00,,,0.00,VWS V14.01,2013-10-23 16:42:00,
2013-10-23 10:47:00,92.4,78.9,29.85,South,187,3.0,4.0,65,0.00,,,0.00,VWS V14.01,2013-10-23 16:47:00,
2013-10-23 10:52:00,92.4,78.9,29.85,South,181,2.0,4.0,65,0.00,,,0.00,VWS V14.01,2013-10-23 16:52:00,
2013-10-23 10:57:00,92.0,78.6,29.85,South,172,4.0,5.0,65,0.00,,,0.00,VWS V14.01,2013-10-23 16:57:00,
2013-10-23 11:00:00,91.1,78.2,29.85,SSE,162,5.0,5.0,66,0.00,,,0.00,VWS V15.00,2013-10-23 17:00:00,
2013-10-23 11:02:00,90.9,78.0,29.84,South,191,4.0,5.0,66,0.00,,,0.00,VWS V14.01,2013-10-23 17:02:00,
2013-10-23 11:07:00,90.5,78.5,29.84,SE,132,3.0,5.0,68,0.00,,,0.00,VWS V14.01,2013-10-23 17:07:00,
2013-10-23 11:12:00,91.1,78.6,29.84,SE,142,3.0,5.0,67,0.00,,,0.00,VWS V14.01,2013-10-23 17:12:00,
2013-10-23 11:17:00,91.9,79.4,29.84,ESE,110,2.0,5.0,67,0.00,,,0.00,VWS V14.01,2013-10-23 17:17:00,
2013-10-23 11:22:00,91.7,78.3,29.84,ESE,107,1.0,7.0,65,0.00,,,0.00,VWS V14.01,2013-10-23 17:22:00,
2013-10-23 11:27:00,91.9,78.9,29.84,East,91,2.0,7.0,66,0.00,,,0.00,VWS V14.01,2013-10-23 17:27:00,
2013-10-23 11:30:00,91.5,78.1,29.84,South,176,4.0,7.0,65,0.00,,,0.00,VWS V15.00,2013-10-23 17:30:00,
2013-10-23 11:32:00,91.4,78.0,29.84,SE,124,4.0,5.0,65,0.00,,,0.00,VWS V14.01,2013-10-23 17:32:00,
2013-10-23 11:37:00,89.3,76.9,29.84,East,86,4.0,10.0,67,0.00,,,0.00,VWS V14.01,2013-10-23 17:37:00,
2013-10-23 11:42:00,88.7,78.1,29.84,East,91,6.0,10.0,71,0.00,,,0.00,VWS V14.01,2013-10-23 17:42:00,
2013-10-23 11:47:00,88.4,78.2,29.83,ENE,73,4.0,10.0,72,0.00,,,0.00,VWS V14.01,2013-10-23 17:47:00,
2013-10-23 11:52:00,88.0,77.0,29.83,East,91,9.0,10.0,70,0.00,,,0.00,VWS V14.01,2013-10-23 17:52:00,
2013-10-23 11:57:00,87.6,77.5,29.83,ESE,110,3.0,10.0,72,0.00,,,0.00,VWS V14.01,2013-10-23 17:57:00,
2013-10-23 12:00:00,87.5,77.8,29.83,NNE,19,4.0,10.0,73,0.00,,,0.00,VWS V15.00,2013-10-23 18:00:00,
2013-10-23 12:02:00,87.8,78.1,29.83,NE,53,6.0,6.0,73,0.00,,,0.00,VWS V14.01,2013-10-23 18:02:00,
2013-10-23 12:07:00,88.3,78.1,29.82,South,191,0.0,8.0,72,0.00,,,0.00,VWS V14.01,2013-10-23 18:07:00,
2013-10-23 12:12:00,89.1,77.2,29.82,East,81,4.0,8.0,68,0.00,,,0.00,VWS V14.01,2013-10-23 18:12:00,
2013-10-23 12:17:00,88.7,77.7,29.82,ENE,77,3.0,8.0,70,0.00,,,0.00,VWS V14.01,2013-10-23 18:17:00,
2013-10-23 12:22:00,88.7,77.2,29.81,ENE,64,8.0,8.0,69,0.00,,,0.00,VWS V14.01,2013-10-23 18:22:00,
2013-10-23 12:27:00,88.6,77.6,29.81,North,359,4.0,8.0,70,0.00,,,0.00,VWS V14.01,2013-10-23 18:27:00,
2013-10-23 12:30:00,88.9,77.0,29.81,ENE,64,10.0,10.0,68,0.00,,,0.00,VWS V15.00,2013-10-23 18:30:00,
2013-10-23 12:32:00,88.8,76.9,29.80,ENE,77,2.0,10.0,68,0.00,,,0.00,VWS V14.01,2013-10-23 18:32:00,
2013-10-23 12:37:00,88.4,76.9,29.80,ENE,71,4.0,10.0,69,0.00,,,0.00,VWS V14.01,2013-10-23 18:37:00,
2013-10-23 12:42:00,88.3,77.3,29.79,NE,45,5.0,10.0,70,0.00,,,0.00,VWS V14.01,2013-10-23 18:42:00,
2013-10-23 12:47:00,88.5,77.5,29.79,WSW,257,1.0,10.0,70,0.00,,,0.00,VWS V14.01,2013-10-23 18:47:00,
2013-10-23 12:52:00,89.6,77.2,29.79,NW,305,1.0,10.0,67,0.00,,,0.00,VWS V14.01,2013-10-23 18:52:00,
2013-10-23 12:57:00,90.7,77.8,29.79,ESE,108,2.0,10.0,66,0.00,,,0.00,VWS V14.01,2013-10-23 18:57:00,
2013-10-23 13:00:00,90.8,77.9,29.79,North,355,5.0,10.0,66,0.00,,,0.00,VWS V15.00,2013-10-23 19:00:00,
2013-10-23 13:02:00,90.8,77.9,29.78,NE,49,4.0,5.0,66,0.00,,,0.00,VWS V14.01,2013-10-23 19:02:00,
2013-10-23 13:07:00,90.7,76.8,29.78,NE,34,4.0,7.0,64,0.00,,,0.00,VWS V14.01,2013-10-23 19:07:00,
2013-10-23 13:12:00,90.3,76.9,29.78,NNW,346,4.0,7.0,65,0.00,,,0.00,VWS V14.01,2013-10-23 19:12:00,
2013-10-23 13:17:00,90.2,77.3,29.78,NNW,333,2.0,9.0,66,0.00,,,0.00,VWS V14.01,2013-10-23 19:17:00,
2013-10-23 13:22:00,90.5,77.6,29.78,ENE,57,1.0,9.0,66,0.00,,,0.00,VWS V14.01,2013-10-23 19:22:00,
2013-10-23 13:27:00,90.7,76.8,29.78,NNE,27,1.0,9.0,64,0.00,,,0.00,VWS V14.01,2013-10-23 19:27:00,
2013-10-23 13:30:00,90.6,76.8,29.78,NNE,13,0.0,9.0,64,0.00,,,0.00,VWS V15.00,2013-10-23 19:30:00,
2013-10-23 13:32:00,90.7,77.3,29.78,ENE,77,1.0,3.0,65,0.00,,,0.00,VWS V14.01,2013-10-23 19:32:00,
2013-10-23 13:37:00,91.0,76.2,29.78,NE,53,8.0,8.0,62,0.00,,,0.00,VWS V14.01,2013-10-23 19:37:00,
2013-10-23 13:42:00,90.1,75.3,29.77,ENE,71,4.0,8.0,62,0.00,,,0.00,VWS V14.01,2013-10-23 19:42:00,
2013-10-23 13:47:00,88.9,75.6,29.78,NE,53,4.0,9.0,65,0.00,,,0.00,VWS V14.01,2013-10-23 19:47:00,
2013-10-23 13:52:00,88.7,75.9,29.77,NE,54,4.0,9.0,66,0.00,,,0.00,VWS V14.01,2013-10-23 19:52:00,
2013-10-23 13:57:00,88.6,76.7,29.78,ENE,65,3.0,9.0,68,0.00,,,0.00,VWS V14.01,2013-10-23 19:57:00,
2013-10-23 14:00:00,88.0,76.1,29.77,North,3,2.0,10.0,68,0.00,,,0.00,VWS V15.00,2013-10-23 20:00:00,
2013-10-23 14:02:00,88.1,76.7,29.77,NE,45,5.0,5.0,69,0.00,,,0.00,VWS V14.01,2013-10-23 20:02:00,
2013-10-23 14:07:00,88.1,76.2,29.77,NE,51,11.0,11.0,68,0.00,,,0.00,VWS V14.01,2013-10-23 20:07:00,
2013-10-23 14:12:00,88.0,76.1,29.77,ENE,68,7.0,11.0,68,0.00,,,0.00,VWS V14.01,2013-10-23 20:12:00,
2013-10-23 14:17:00,87.9,76.5,29.77,ENE,57,4.0,11.0,69,0.00,,,0.00,VWS V14.01,2013-10-23 20:17:00,
2013-10-23 14:22:00,88.1,76.2,29.77,NE,53,5.0,11.0,68,0.00,,,0.00,VWS V14.01,2013-10-23 20:22:00,
2013-10-23 14:27:00,87.9,76.0,29.77,SE,128,5.0,11.0,68,0.00,,,0.00,VWS V14.01,2013-10-23 20:27:00,
2013-10-23 14:30:00,88.1,76.2,29.77,ENE,72,4.0,11.0,68,0.00,,,0.00,VWS V15.00,2013-10-23 20:30:00,
2013-10-23 14:32:00,88.1,76.7,29.77,NE,49,3.0,7.0,69,0.00,,,0.00,VWS V14.01,2013-10-23 20:32:00,
2013-10-23 14:37:00,88.4,76.5,29.77,ENE,63,6.0,7.0,68,0.00,,,0.00,VWS V14.01,2013-10-23 20:37:00,
2013-10-23 14:42:00,88.5,76.6,29.76,East,82,7.0,9.0,68,0.00,,,0.00,VWS V14.01,2013-10-23 20:42:00,
2013-10-23 14:47:00,88.2,76.8,29.76,ENE,77,6.0,10.0,69,0.00,,,0.00,VWS V14.01,2013-10-23 20:47:00,
2013-10-23 14:52:00,88.0,77.0,29.76,NE,56,4.0,10.0,70,0.00,,,0.00,VWS V14.01,2013-10-23 20:52:00,
2013-10-23 14:57:00,87.9,76.9,29.76,NE,37,5.0,10.0,70,0.00,,,0.00,VWS V14.01,2013-10-23 20:57:00,
2013-10-23 15:00:00,88.1,77.1,29.76,NNE,19,3.0,10.0,70,0.00,,,0.00,VWS V15.00,2013-10-23 21:00:00,
2013-10-23 15:02:00,88.2,76.3,29.76,ENE,67,8.0,9.0,68,0.00,,,0.00,VWS V14.01,2013-10-23 21:02:00,
2013-10-23 15:07:00,88.1,76.7,29.76,ENE,58,3.0,11.0,69,0.00,,,0.00,VWS V14.01,2013-10-23 21:07:00,
2013-10-23 15:12:00,88.3,76.8,29.76,NE,56,6.0,11.0,69,0.00,,,0.00,VWS V14.01,2013-10-23 21:12:00,
2013-10-23 15:17:00,87.9,76.9,29.76,ENE,60,6.0,11.0,70,0.00,,,0.00,VWS V14.01,2013-10-23 21:17:00,
2013-10-23 15:22:00,88.0,77.4,29.76,ENE,61,7.0,11.0,71,0.00,,,0.00,VWS V14.01,2013-10-23 21:22:00,
2013-10-23 15:27:00,88.0,77.0,29.76,NE,56,6.0,12.0,70,0.00,,,0.00,VWS V14.01,2013-10-23 21:27:00,
2013-10-23 15:30:00,87.9,77.8,29.76,NE,49,12.0,12.0,72,0.00,,,0.00,VWS V15.00,2013-10-23 21:30:00,
2013-10-23 15:32:00,87.8,77.2,29.76,ENE,68,11.0,14.0,71,0.00,,,0.00,VWS V14.01,2013-10-23 21:32:00,
2013-10-23 15:37:00,87.9,78.2,29.76,ENE,66,7.0,14.0,73,0.00,,,0.00,VWS V14.01,2013-10-23 21:37:00,
2013-10-23 15:42:00,87.5,77.8,29.76,East,91,8.0,14.0,73,0.00,,,0.00,VWS V14.01,2013-10-23 21:42:00,
2013-10-23 15:47:00,87.6,77.9,29.77,NE,44,9.0,17.0,73,0.00,,,0.00,VWS V14.01,2013-10-23 21:47:00,
2013-10-23 15:52:00,87.4,78.1,29.76,ENE,69,6.0,17.0,74,0.00,,,0.00,VWS V14.01,2013-10-23 21:52:00,
2013-10-23 15:57:00,87.4,78.1,29.76,ESE,111,11.0,17.0,74,0.00,,,0.00,VWS V14.01,2013-10-23 21:57:00,
2013-10-23 16:00:00,87.4,78.1,29.76,North,6,3.0,17.0,74,0.00,,,0.00,VWS V15.00,2013-10-23 22:00:00,
2013-10-23 16:02:00,87.5,78.6,29.76,NE,49,7.0,8.0,75,0.00,,,0.00,VWS V14.01,2013-10-23 22:02:00,
2013-10-23 16:07:00,87.7,78.4,29.76,East,93,5.0,13.0,74,0.00,,,0.00,VWS V14.01,2013-10-23 22:07:00,
2013-10-23 16:12:00,87.3,78.0,29.76,ENE,77,9.0,13.0,74,0.00,,,0.00,VWS V14.01,2013-10-23 22:12:00,
2013-10-23 16:17:00,87.0,78.1,29.76,ENE,68,5.0,13.0,75,0.00,,,0.00,VWS V14.01,2013-10-23 22:17:00,
2013-10-23 16:22:00,86.6,78.1,29.76,ENE,62,6.0,15.0,76,0.00,,,0.00,VWS V14.01,2013-10-23 22:22:00,
2013-10-23 16:27:00,86.5,78.4,29.76,ENE,63,6.0,15.0,77,0.00,,,0.00,VWS V14.01,2013-10-23 22:27:00,
2013-10-23 16:30:00,86.3,78.2,29.77,East,87,5.0,15.0,77,0.00,,,0.00,VWS V15.00,2013-10-23 22:30:00,
2013-10-23 16:32:00,86.3,78.2,29.77,ENE,61,9.0,10.0,77,0.00,,,0.00,VWS V14.01,2013-10-23 22:32:00,
2013-10-23 16:37:00,86.1,78.4,29.77,NE,56,3.0,12.0,78,0.00,,,0.00,VWS V14.01,2013-10-23 22:37:00,
2013-10-23 16:42:00,85.9,78.6,29.78,ENE,65,6.0,14.0,79,0.00,,,0.00,VWS V14.01,2013-10-23 22:42:00,
2013-10-23 16:47:00,85.8,78.9,29.78,ENE,65,9.0,14.0,80,0.00,,,0.00,VWS V14.01,2013-10-23 22:47:00,
2013-10-23 16:52:00,85.7,78.4,29.78,East,79,6.0,15.0,79,0.00,,,0.00,VWS V14.01,2013-10-23 22:52:00,
2013-10-23 16:57:00,85.6,78.7,29.78,NE,52,11.0,15.0,80,0.00,,,0.00,VWS V14.01,2013-10-23 22:57:00,
2013-10-23 17:00:00,85.6,78.7,29.79,NE,54,9.0,15.0,80,0.00,,,0.00,VWS V15.00,2013-10-23 23:00:00,
2013-10-23 17:02:00,85.6,78.7,29.79,East,85,6.0,12.0,80,0.00,,,0.00,VWS V14.01,2013-10-23 23:02:00,
2013-10-23 17:07:00,85.6,78.7,29.79,NW,323,5.0,14.0,80,0.00,,,0.00,VWS V14.01,2013-10-23 23:07:00,
2013-10-23 17:12:00,85.6,79.1,29.79,ENE,69,8.0,15.0,81,0.00,,,0.00,VWS V14.01,2013-10-23 23:12:00,
2013-10-23 17:17:00,85.6,78.7,29.79,ENE,61,10.0,15.0,80,0.00,,,0.00,VWS V14.01,2013-10-23 23:17:00,
2013-10-23 17:22:00,85.5,79.0,29.79,NE,56,7.0,15.0,81,0.00,,,0.00,VWS V14.01,2013-10-23 23:22:00,
2013-10-23 17:27:00,85.3,78.8,29.79,ENE,76,8.0,15.0,81,0.00,,,0.00,VWS V14.01,2013-10-23 23:27:00,
2013-10-23 17:30:00,85.3,79.2,29.79,ENE,65,7.0,15.0,82,0.00,,,0.00,VWS V15.00,2013-10-23 23:30:00,
2013-10-23 17:32:00,85.3,79.2,29.79,East,95,8.0,13.0,82,0.00,,,0.00,VWS V14.01,2013-10-23 23:32:00,
2013-10-23 17:37:00,85.2,79.5,29.79,ENE,67,9.0,18.0,83,0.00,,,0.00,VWS V14.01,2013-10-23 23:37:00,
2013-10-23 17:42:00,84.8,79.1,29.79,NE,42,3.0,18.0,83,0.00,,,0.00,VWS V14.01,2013-10-23 23:42:00,
2013-10-23 17:47:00,84.6,78.9,29.79,NE,52,6.0,18.0,83,0.00,,,0.00,VWS V14.01,2013-10-23 23:47:00,
2013-10-23 17:52:00,84.5,79.1,29.79,ESE,111,5.0,18.0,84,0.00,,,0.00,VWS V14.01,2013-10-23 23:52:00,
2013-10-23 17:57:00,84.7,79.3,29.80,East,82,5.0,18.0,84,0.00,,,0.00,VWS V14.01,2013-10-23 23:57:00,
2013-10-23 18:00:00,84.8,79.4,29.80,East,99,5.0,18.0,84,0.00,,,0.00,VWS V15.00,2013-10-24 00:00:00,
2013-10-23 18:02:00,84.9,79.5,29.80,ENE,74,3.0,7.0,84,0.00,,,0.00,VWS V14.01,2013-10-24 00:02:00,
2013-10-23 18:07:00,84.9,79.5,29.80,ENE,61,5.0,9.0,84,0.00,,,0.00,VWS V14.01,2013-10-24 00:07:00,
2013-10-23 18:12:00,84.7,79.7,29.80,ENE,58,5.0,9.0,85,0.00,,,0.00,VWS V14.01,2013-10-24 00:12:00,
2013-10-23 18:17:00,84.6,79.6,29.80,ENE,69,4.0,9.0,85,0.00,,,0.00,VWS V14.01,2013-10-24 00:17:00,
2013-10-23 18:22:00,84.5,79.5,29.81,ENE,76,4.0,9.0,85,0.00,,,0.00,VWS V14.01,2013-10-24 00:22:00,
2013-10-23 18:27:00,84.6,79.6,29.81,NE,54,5.0,9.0,85,0.00,,,0.00,VWS V14.01,2013-10-24 00:27:00,
2013-10-23 18:30:00,84.6,79.2,29.81,NE,56,6.0,9.0,84,0.00,,,0.00,VWS V15.00,2013-10-24 00:30:00,
2013-10-23 18:32:00,84.6,79.6,29.81,ENE,70,6.0,8.0,85,0.00,,,0.00,VWS V14.01,2013-10-24 00:32:00,
2013-10-23 18:37:00,84.6,79.6,29.82,ESE,116,3.0,10.0,85,0.00,,,0.00,VWS V14.01,2013-10-24 00:37:00,
2013-10-23 18:42:00,84.6,79.6,29.82,ENE,70,3.0,11.0,85,0.00,,,0.00,VWS V14.01,2013-10-24 00:42:00,
2013-10-23 18:47:00,84.6,79.2,29.83,NNE,32,6.0,11.0,84,0.00,,,0.00,VWS V14.01,2013-10-24 00:47:00,
2013-10-23 18:52:00,84.6,79.2,29.83,ENE,62,9.0,12.0,84,0.00,,,0.00,VWS V14.01,2013-10-24 00:52:00,
2013-10-23 18:57:00,84.6,79.2,29.83,NNE,30,8.0,12.0,84,0.00,,,0.00,VWS V14.01,2013-10-24 00:57:00,
2013-10-23 19:00:00,84.7,79.0,29.83,ENE,77,16.0,16.0,83,0.00,,,0.00,VWS V15.00,2013-10-24 01:00:00,
2013-10-23 19:02:00,84.6,78.9,29.83,NE,56,7.0,12.0,83,0.00,,,0.00,VWS V14.01,2013-10-24 01:02:00,
2013-10-23 19:07:00,84.8,78.7,29.83,East,80,10.0,14.0,82,0.00,,,0.00,VWS V14.01,2013-10-24 01:07:00,
2013-10-23 19:12:00,84.8,78.7,29.84,ENE,67,7.0,14.0,82,0.00,,,0.00,VWS V14.01,2013-10-24 01:12:00,
2013-10-23 19:17:00,84.8,78.7,29.84,NW,314,6.0,14.0,82,0.00,,,0.00,VWS V14.01,2013-10-24 01:17:00,
2013-10-23 19:22:00,84.8,78.7,29.84,ENE,68,3.0,14.0,82,0.00,,,0.00,VWS V14.01,2013-10-24 01:22:00,
2013-10-23 19:27:00,84.8,78.7,29.84,ENE,68,6.0,14.0,82,0.00,,,0.00,VWS V14.01,2013-10-24 01:27:00,
2013-10-23 19:30:00,84.8,79.1,29.84,South,183,4.0,16.0,83,0.00,,,0.00,VWS V15.00,2013-10-24 01:30:00,
2013-10-23 19:32:00,84.8,79.1,29.84,NE,38,4.0,10.0,83,0.00,,,0.00,VWS V14.01,2013-10-24 01:32:00,
2013-10-23 19:37:00,84.7,79.0,29.84,ENE,58,7.0,15.0,83,0.00,,,0.00,VWS V14.01,2013-10-24 01:37:00,
2013-10-23 19:42:00,84.8,79.1,29.85,NNE,30,9.0,15.0,83,0.00,,,0.00,VWS V14.01,2013-10-24 01:42:00,
2013-10-23 19:46:00,84.8,79.1,29.85,NE,49,7.0,15.0,83,0.00,,,0.00,VWS V14.01,2013-10-24 01:46:00,
2013-10-23 19:51:00,84.8,78.7,29.85,NE,51,7.0,15.0,82,0.00,,,0.00,VWS V14.01,2013-10-24 01:51:00,
2013-10-23 19:56:00,84.9,78.4,29.85,East,79,10.0,17.0,81,0.00,,,0.00,VWS V14.01,2013-10-24 01:56:00,
2013-10-23 20:00:00,84.9,78.4,29.85,ENE,62,10.0,17.0,81,0.00,,,0.00,VWS V15.00,2013-10-24 02:00:00,
2013-10-23 20:01:00,84.9,78.4,29.85,SE,137,5.0,14.0,81,0.00,,,0.00,VWS V14.01,2013-10-24 02:01:00,
2013-10-23 20:06:00,84.9,78.4,29.85,ENE,62,10.0,17.0,81,0.00,,,0.00,VWS V14.01,2013-10-24 02:06:00,
2013-10-23 20:11:00,84.9,78.4,29.85,NE,56,6.0,17.0,81,0.00,,,0.00,VWS V14.01,2013-10-24 02:11:00,
2013-10-23 20:16:00,84.9,78.8,29.85,East,79,6.0,17.0,82,0.00,,,0.00,VWS V14.01,2013-10-24 02:16:00,
2013-10-23 20:21:00,84.8,78.7,29.85,ENE,72,9.0,17.0,82,0.00,,,0.00,VWS V14.01,2013-10-24 02:21:00,
2013-10-23 20:26:00,84.8,78.7,29.85,ENE,71,5.0,17.0,82,0.00,,,0.00,VWS V14.01,2013-10-24 02:26:00,
2013-10-23 20:30:00,84.8,78.7,29.85,ENE,64,6.0,17.0,82,0.00,,,0.00,VWS V15.00,2013-10-24 02:30:00,
2013-10-23 20:31:00,84.8,79.1,29.85,ENE,76,9.0,9.0,83,0.00,,,0.00,VWS V14.01,2013-10-24 02:31:00,
2013-10-23 20:36:00,84.7,79.0,29.85,NE,56,7.0,13.0,83,0.00,,,0.00,VWS V14.01,2013-10-24 02:36:00,
2013-10-23 20:41:00,84.7,79.0,29.85,NE,37,9.0,17.0,83,0.00,,,0.00,VWS V14.01,2013-10-24 02:41:00,
2013-10-23 20:46:00,84.7,79.3,29.85,NNE,25,8.0,17.0,84,0.00,,,0.00,VWS V14.01,2013-10-24 02:46:00,
2013-10-23 20:51:00,84.6,78.9,29.85,East,97,13.0,17.0,83,0.00,,,0.00,VWS V14.01,2013-10-24 02:51:00,
2013-10-23 20:56:00,84.6,78.9,29.85,ENE,63,6.0,17.0,83,0.00,,,0.00,VWS V14.01,2013-10-24 02:56:00,
2013-10-23 21:00:00,84.5,78.8,29.85,ENE,66,7.0,17.0,83,0.00,,,0.00,VWS V15.00,2013-10-24 03:00:00,
2013-10-23 21:01:00,84.5,78.8,29.85,NE,49,6.0,7.0,83,0.00,,,0.00,VWS V14.01,2013-10-24 03:01:00,
2013-10-23 21:06:00,84.5,78.8,29.85,NE,50,6.0,16.0,83,0.00,,,0.00,VWS V14.01,2013-10-24 03:06:00,
2013-10-23 21:11:00,84.4,79.0,29.85,ENE,64,7.0,16.0,84,0.00,,,0.00,VWS V14.01,2013-10-24 03:11:00,
2013-10-23 21:16:00,84.4,79.0,29.85,East,79,10.0,16.0,84,0.00,,,0.00,VWS V14.01,2013-10-24 03:16:00,
2013-10-23 21:21:00,84.3,78.6,29.84,ENE,65,8.0,16.0,83,0.00,,,0.00,VWS V14.01,2013-10-24 03:21:00,
2013-10-23 21:26:00,84.3,78.9,29.84,ENE,61,3.0,16.0,84,0.00,,,0.00,VWS V14.01,2013-10-24 03:26:00,
2013-10-23 21:30:00,84.2,78.8,29.85,NE,44,4.0,16.0,84,0.00,,,0.00,VWS V15.00,2013-10-24 03:30:00,
2013-10-23 21:31:00,84.2,78.8,29.85,East,85,4.0,6.0,84,0.00,,,0.00,VWS V14.01,2013-10-24 03:31:00,
2013-10-23 21:36:00,84.2,78.8,29.85,ENE,61,8.0,12.0,84,0.00,,,0.00,VWS V14.01,2013-10-24 03:36:00,
2013-10-23 21:41:00,84.2,78.8,29.85,NE,51,6.0,12.0,84,0.00,,,0.00,VWS V14.01,2013-10-24 03:41:00,
2013-10-23 21:46:00,84.2,78.8,29.85,NE,49,4.0,12.0,84,0.00,,,0.00,VWS V14.01,2013-10-24 03:46:00,
2013-10-23 21:51:00,84.2,78.8,29.85,East,79,4.0,12.0,84,0.00,,,0.00,VWS V14.01,2013-10-24 03:51:00,
2013-10-23 21:56:00,84.2,78.8,29.85,ENE,65,7.0,12.0,84,0.00,,,0.00,VWS V14.01,2013-10-24 03:56:00,
2013-10-23 22:00:00,84.2,78.8,29.84,NE,39,9.0,12.0,84,0.00,,,0.00,VWS V15.00,2013-10-24 04:00:00,
2013-10-23 22:01:00,84.2,78.8,29.84,NNE,28,7.0,9.0,84,0.00,,,0.00,VWS V14.01,2013-10-24 04:01:00,
2013-10-23 22:06:00,84.1,78.8,29.84,NE,50,10.0,10.0,84,0.00,,,0.00,VWS V14.01,2013-10-24 04:06:00,
2013-10-23 22:11:00,84.1,78.4,29.84,ENE,76,5.0,10.0,83,0.00,,,0.00,VWS V14.01,2013-10-24 04:11:00,
2013-10-23 22:16:00,84.2,78.8,29.84,ENE,73,3.0,11.0,84,0.00,,,0.00,VWS V14.01,2013-10-24 04:16:00,
2013-10-23 22:21:00,84.3,78.6,29.84,ENE,61,5.0,12.0,83,0.00,,,0.00,VWS V14.01,2013-10-24 04:21:00,
2013-10-23 22:26:00,84.3,78.2,29.84,ENE,60,7.0,12.0,82,0.00,,,0.00,VWS V14.01,2013-10-24 04:26:00,
2013-10-23 22:30:00,84.4,78.3,29.83,NE,40,7.0,13.0,82,0.00,,,0.00,VWS V15.00,2013-10-24 04:30:00,
2013-10-23 22:31:00,84.4,77.9,29.83,NE,51,4.0,9.0,81,0.00,,,0.00,VWS V14.01,2013-10-24 04:31:00,
2013-10-23 22:36:00,84.5,78.0,29.84,ENE,65,5.0,12.0,81,0.00,,,0.00,VWS V14.01,2013-10-24 04:36:00,
2013-10-23 22:41:00,84.5,78.0,29.84,ENE,60,6.0,13.0,81,0.00,,,0.00,VWS V14.01,2013-10-24 04:41:00,
2013-10-23 22:46:00,84.4,77.9,29.83,ENE,70,4.0,13.0,81,0.00,,,0.00,VWS V14.01,2013-10-24 04:46:00,
2013-10-23 22:51:00,84.5,77.7,29.83,NNE,32,6.0,13.0,80,0.00,,,0.00,VWS V14.01,2013-10-24 04:51:00,
2013-10-23 22:56:00,84.5,77.3,29.83,NNE,32,4.0,13.0,79,0.00,,,0.00,VWS V14.01,2013-10-24 04:56:00,
2013-10-23 23:00:00,84.6,77.4,29.83,NE,50,13.0,13.0,79,0.00,,,0.00,VWS V15.00,2013-10-24 05:00:00,
2013-10-23 23:01:00,84.6,77.0,29.83,NE,49,10.0,13.0,78,0.00,,,0.00,VWS V14.01,2013-10-24 05:01:00,
2013-10-23 23:06:00,84.6,77.0,29.83,NE,56,8.0,13.0,78,0.00,,,0.00,VWS V14.01,2013-10-24 05:06:00,
2013-10-23 23:11:00,84.6,77.0,29.83,NE,51,7.0,13.0,78,0.00,,,0.00,VWS V14.01,2013-10-24 05:11:00,
2013-10-23 23:16:00,84.6,77.0,29.83,NNE,23,4.0,13.0,78,0.00,,,0.00,VWS V14.01,2013-10-24 05:16:00,
2013-10-23 23:21:00,84.5,76.9,29.83,NE,54,6.0,13.0,78,0.00,,,0.00,VWS V14.01,2013-10-24 05:21:00,
2013-10-23 23:26:00,84.5,76.9,29.83,ENE,61,3.0,13.0,78,0.00,,,0.00,VWS V14.01,2013-10-24 05:26:00,
2013-10-23 23:30:00,84.4,76.8,29.82,NE,43,6.0,13.0,78,0.00,,,0.00,VWS V15.00,2013-10-24 05:30:00,
2013-10-23 23:31:00,84.4,76.8,29.82,NE,46,8.0,8.0,78,0.00,,,0.00,VWS V14.01,2013-10-24 05:31:00,
2013-10-23 23:36:00,84.5,76.9,29.82,NE,42,3.0,11.0,78,0.00,,,0.00,VWS V14.01,2013-10-24 05:36:00,
2013-10-23 23:41:00,84.5,76.5,29.82,NNE,21,5.0,11.0,77,0.00,,,0.00,VWS V14.01,2013-10-24 05:41:00,
2013-10-23 23:46:00,84.5,76.9,29.82,NE,56,9.0,13.0,78,0.00,,,0.00,VWS V14.01,2013-10-24 05:46:00,
2013-10-23 23:51:00,84.6,77.0,29.82,NE,41,10.0,13.0,78,0.00,,,0.00,VWS V14.01,2013-10-24 05:51:00,
2013-10-23 23:56:00,84.5,77.7,29.82,East,84,2.0,13.0,80,0.00,,,0.00,VWS V14.01,2013-10-24 05:56:00,